This demonstration page uses our WeatherBlox Daily Observations layout. Learn more.

Left ArrowRight Arrow

44.89941, -97.11507

Hourly Observations for January 28, 2016

Temp ( °F °C ) Dew Point ( °F °C ) Humidity (%) Winds ( mph kmh ) Pressure ( in mb ) Visibility ( mi km ) Precip ( " mm )
12:53 am 00:53 Clear 33 0.6 26 -3.3 75 75 WNW 14 22 29.83 1010 10 16 0.00 0.00
1:19 am 01:19 Mostly Cloudy 33 0.6 26 -3.3 75 75 WNW 12 19 29.88 1012 10 16 0.00 0.00
1:53 am 01:53 Mostly Cloudy 33 0.6 27 -2.8 78 78 WNW 13 20 29.83 1010 10 16 0.00 0.00
2:06 am 02:06 Partly Cloudy 33 0.6 26 -3.3 75 75 WNW 15 24 29.83 1010 10 16 0.00 0.00
2:53 am 02:53 Clear 32 0 26 -3.3 79 79 WNW 15 24 29.83 1010 10 16 0.00 0.00
3:53 am 03:53 Cloudy 33 0.6 27 -2.8 78 78 WNW 21 33 29.85 1011 10 16 0.00 0.00
4:53 am 04:53 Cloudy 33 0.6 27 -2.8 78 78 WNW 17 28 29.85 1011 10 16 0.00 0.00
5:53 am 05:53 Cloudy 32 0 27 -2.8 82 82 NW 17 28 29.87 1011 10 16 0.00 0.00
6:36 am 06:36 Cloudy 33 0.6 27 -2.8 78 78 NW 18 30 29.91 1013 10 16 0.00 0.00
6:53 am 06:53 Cloudy 33 0.6 27 -2.8 78 78 NNW 18 30 29.88 1012 10 16 0.00 0.00
7:15 am 07:15 undefined N/A N/A N/A undefined N/A N/A N/A 0.00 0.00
7:53 am 07:53 Cloudy 33 0.6 28 -2.2 82 82 NNW 20 31 29.89 1012 10 16 0.00 0.00
8:37 am 08:37 Cloudy 33 0.6 26 -3.3 75 75 NW 14 22 29.94 1014 10 16 0.00 0.00
8:53 am 08:53 Cloudy 33 0.6 27 -2.8 78 78 NNW 16 26 29.91 1013 10 16 0.00 0.00
9:21 am 09:21 Cloudy 33 0.6 28 -2.2 82 82 NNW 17 28 29.97 1015 10 16 0.00 0.00
9:30 am 09:30 Cloudy 33 0.6 28 -2.2 82 82 NNW 15 24 29.97 1015 10 16 0.00 0.00
9:53 am 09:53 Cloudy 34 1.1 28 -2.2 79 79 NNW 15 24 29.93 1013 10 16 0.00 0.00
10:34 am 10:34 Cloudy 34 1.1 27 -2.8 76 76 NNW 16 26 30.00 1016 10 16 0.00 0.00
10:53 am 10:53 Mostly Cloudy 34 1.1 26 -3.3 73 73 N 22 35 29.94 1014 10 16 0.00 0.00
11:53 am 11:53 Mostly Sunny 33 0.6 25 -3.9 72 72 NNW 15 24 29.95 1014 10 16 0.00 0.00
12:20 pm 12:20 Mostly Cloudy 33 0.6 24 -4.4 70 70 NNW 17 28 30.00 1016 10 16 0.00 0.00
12:35 pm 12:35 Mostly Cloudy 32 0 24 -4.4 73 73 N 17 28 29.97 1015 10 16 0.00 0.00
12:53 pm 12:53 Cloudy 32 0 24 -4.4 73 73 N 14 22 29.94 1014 10 16 0.00 0.00
1:10 pm 13:10 Cloudy 32 0 24 -4.4 73 73 N 13 20 29.97 1015 10 16 0.00 0.00
1:53 pm 13:53 Cloudy 32 0 25 -3.9 75 75 N 6 9 29.93 1014 10 16 0.00 0.00
2:53 pm 14:53 Cloudy 32 0 25 -3.9 75 75 N 7 11 29.92 1013 10 16 0.00 0.00
3:53 pm 15:53 Cloudy 32 0 25 -3.9 75 75 NW 5 7 29.92 1013 10 16 0.00 0.00
4:53 pm 16:53 Cloudy 32 0 26 -3.3 79 79 Calm 29.92 1013 10 16 0.00 0.00
5:53 pm 17:53 Cloudy 32 0 26 -3.3 79 79 Calm 29.91 1013 10 16 0.00 0.00
6:53 pm 18:53 Cloudy 31 -0.6 27 -2.8 85 85 SSW 5 7 29.91 1013 10 16 0.00 0.00
7:53 pm 19:53 Cloudy 31 -0.6 26 -3.3 82 82 SSE 6 9 29.89 1012 10 16 0.00 0.00
8:53 pm 20:53 Partly Cloudy 31 -0.6 26 -3.3 82 82 S 8 13 29.87 1012 10 16 0.00 0.00
9:53 pm 21:53 Mostly Cloudy 30 -1.1 26 -3.3 85 85 S 8 13 29.85 1011 10 16 0.00 0.00
10:53 pm 22:53 Mostly Cloudy 31 -0.6 27 -2.8 85 85 S 10 17 29.83 1010 10 16 0.00 0.00
11:53 pm 23:53 Clear 31 -0.6 27 -2.8 85 85 SSE 12 19 29.80 1009 10 16 0.00 0.00

Powered by AerisWeather